Weather reports worldwide

Advertisment
Filton, United Kingdom (3628): temperature & dewpoint: 20.09.2018 04:00:00 - 26.09.2018 04:00:00 (BST)Filton, United Kingdom (3628): temperature -20cm & temperature -100cm: 20.09.2018 04:00:00 - 26.09.2018 04:00:00 (BST)Filton, United Kingdom (3628): wind speed & gusts: 20.09.2018 04:00:00 - 26.09.2018 04:00:00 (BST)Filton, United Kingdom (3628): wind direction: 20.09.2018 04:00:00 - 26.09.2018 04:00:00 (BST)Filton, United Kingdom (3628): reduced air pressure: 20.09.2018 04:00:00 - 26.09.2018 04:00:00 (BST)Filton, United Kingdom (3628): visibility: 20.09.2018 04:00:00 - 26.09.2018 04:00:00 (BST)Filton, United Kingdom (3628): sunshine duration: 20.09.2018 04:00:00 - 26.09.2018 04:00:00 (BST)Filton, United Kingdom (3628): precipitation: 20.09.2018 04:00:00 - 26.09.2018 04:00:00 (BST)
Date & Time tt [°C] td [°C] tt -20cm [°C] tt -100cm [°C] ff [km/h] ff [kn] fx [km/h] fx [kn] dd ppp [hPa] vv [km] sd [min] rr [mm]
26.09.2018 04:00:00 6,9 5,4 - - 4 2 - - SW 1033,7 40 0 0,0
26.09.2018 03:00:00 8,2 5,9 - - 2 1 - - SW 1034,0 50 0 0,0
26.09.2018 02:00:00 9,1 6,6 - - 5 3 - - SSW 1034,3 55 0 0,0
26.09.2018 01:00:00 8,5 6,4 - - 11 6 - - SSW 1034,7 35 - 0,0
26.09.2018 00:00:00 8,7 6,9 - - 9 5 - - SSW 1034,7 30 0 0,0
25.09.2018 23:00:00 9,7 7,5 - - 8 4 - - SSW 1035,1 40 0 0,0
25.09.2018 22:00:00 10,6 7,5 - - 9 5 - - SSW 1035,3 40 0 0,0
25.09.2018 21:00:00 11,5 7,6 - - 11 6 - - SSW 1035,4 50 0 0,0
25.09.2018 20:00:00 12,7 7,8 - - 13 7 - - SSW 1035,0 60 0 0,0
25.09.2018 19:00:00 13,8 7,5 - - 15 8 - - SW 1034,8 75 48 0,0
25.09.2018 18:00:00 15,5 7,1 - - 18 10 - - SW 1034,8 70 60 0,0
25.09.2018 17:00:00 16,4 7,2 - - 21 11 - - SW 1035,0 70 54 0,0
25.09.2018 16:00:00 16,2 6,5 - - 16 9 - - SW 1035,6 65 54 0,0
25.09.2018 15:00:00 16,9 7,2 - - 15 8 - - SSW 1036,0 60 42 0,0
25.09.2018 14:00:00 17,0 8,1 - - 15 8 - - SW 1036,7 55 42 0,0
25.09.2018 13:00:00 15,9 7,2 - - 15 8 - - S 1037,6 60 60 0,0
25.09.2018 12:00:00 15,1 6,7 - - 15 8 - - S 1038,2 55 60 0,0
25.09.2018 11:00:00 13,2 4,5 - - 11 6 - - SE 1038,5 60 60 0,0
25.09.2018 10:00:00 10,7 6,8 12,5 15,2 5 3 - - E 1038,7 30 60 0,0
25.09.2018 09:00:00 7,2 5,8 - - 4 2 - - ESE 1038,5 27 60 0,0
25.09.2018 08:00:00 4,9 4,6 - - 4 2 - - E 1038,4 26 36 0,0
25.09.2018 07:00:00 3,1 2,6 - - 4 2 - - ESE 1038,3 25 0 0,0
25.09.2018 06:00:00 4,1 3,7 - - 4 2 - - ENE 1038,5 25 0 0,0
25.09.2018 05:00:00 4,0 3,7 - - 2 1 - - E 1038,5 19 0 0,0
25.09.2018 04:00:00 4,1 3,8 - - 4 2 - - ESE 1038,9 19 0 0,0
25.09.2018 03:00:00 4,2 3,7 - - 2 1 - - E 1039,1 18 0 0,0
25.09.2018 02:00:00 4,9 4,1 - - 2 1 - - NE 1038,9 22 0 0,0
25.09.2018 01:00:00 5,5 4,7 - - 4 2 - - ESE 1039,4 23 - 0,0
25.09.2018 00:00:00 6,8 5,8 - - 4 2 - - NE 1039,6 30 0 0,0
24.09.2018 23:00:00 7,6 5,6 - - 4 2 - - NE 1039,2 35 0 0,0
24.09.2018 22:00:00 8,9 6,0 - - 2 1 - - E 1038,9 45 0 0,0
24.09.2018 21:00:00 9,8 5,8 - - 5 3 - - WSW 1039,0 24 0 0,0
24.09.2018 20:00:00 10,1 5,2 - - 5 3 - - WSW 1038,7 60 0 0,0
24.09.2018 19:00:00 12,1 5,4 - - 8 4 - - W 1038,4 65 48 0,0
24.09.2018 18:00:00 13,6 5,4 - - 11 6 - - W 1038,4 70 42 0,0
24.09.2018 17:00:00 13,6 4,0 - - 9 5 - - N 1038,2 60 36 0,0
24.09.2018 16:00:00 14,7 3,4 - - 8 4 - - N 1038,5 75 54 0,0
24.09.2018 15:00:00 14,1 3,8 - - 11 6 - - N 1038,9 65 42 0,0
24.09.2018 14:00:00 14,7 3,9 - - 5 3 - - NW 1039,0 75 48 0,0
24.09.2018 13:00:00 14,1 4,9 - - 8 4 - - N 1039,6 55 36 0,0
24.09.2018 12:00:00 12,2 4,4 - - 11 6 - - N 1039,5 55 48 0,0
24.09.2018 11:00:00 13,4 7,4 - - 4 2 - - NNE 1039,5 55 60 0,0
24.09.2018 10:00:00 11,2 6,2 13,0 15,4 5 3 - - W 1039,3 35 60 0,0
24.09.2018 09:00:00 9,7 5,8 - - 4 2 - - WNW 1038,4 55 60 0,0
24.09.2018 08:00:00 6,1 5,7 - - 5 3 - - NNW 1037,8 35 30 0,0
24.09.2018 07:00:00 4,1 3,2 - - 4 2 - - SE 1037,2 35 0 0,0
24.09.2018 06:00:00 4,4 3,5 - - 5 3 - - SSE 1036,7 50 0 0,0
24.09.2018 05:00:00 4,4 2,6 - - 5 3 - - SSW 1036,6 50 0 0,0
24.09.2018 04:00:00 7,4 4,6 - - 5 3 - - NW 1035,9 60 0 0,0
24.09.2018 03:00:00 7,6 4,4 - - 8 4 - - NNW 1035,4 70 0 0,0
24.09.2018 02:00:00 8,5 5,0 - - 8 4 - - W 1035,2 65 0 0,0
24.09.2018 01:00:00 8,6 4,9 - - 8 4 - - WNW 1034,4 75 - 0,0
24.09.2018 00:00:00 8,8 4,9 - - 9 5 - - W 1033,6 75 0 0,0
23.09.2018 23:00:00 9,0 4,7 - - 5 3 - - W 1032,5 70 0 0,0
23.09.2018 22:00:00 9,1 4,3 - - 5 3 - - WNW 1031,6 75 0 0,0
23.09.2018 21:00:00 10,0 4,2 - - 9 5 - - NW 1030,4 75 0 0,0
23.09.2018 20:00:00 10,6 4,3 - - 13 7 - - NNW 1029,1 50 0 0,0
23.09.2018 19:00:00 11,3 4,2 - - 9 5 - - NNW 1027,6 45 36 0,0
23.09.2018 18:00:00 12,3 5,0 - - 16 9 - - N 1026,0 65 24 0,0
23.09.2018 17:00:00 12,6 5,6 - - 11 6 - - NNW 1024,9 75 24 0,0
23.09.2018 16:00:00 13,7 6,1 - - 16 9 - - NNW 1023,8 75 36 0,8
23.09.2018 15:00:00 13,8 6,0 - - 15 8 - - NW 1022,9 75 42 0,0
23.09.2018 14:00:00 11,0 8,8 - - 8 4 - - NW 1021,9 75 30 0,2
23.09.2018 13:00:00 11,3 7,1 - - 11 6 - - NW 1021,2 65 48 0,0
23.09.2018 12:00:00 9,4 7,2 - - 8 4 - - NW 1020,6 65 0 0,4
23.09.2018 11:00:00 8,6 7,1 - - 15 8 - - N 1019,4 24 0 0,2
23.09.2018 10:00:00 8,5 6,9 14,0 15,5 22 12 - - NNE 1018,0 19 0 1,0
23.09.2018 09:00:00 8,7 7,9 - - 21 11 - - NNE 1016,9 13 0 2,0
23.09.2018 08:00:00 9,0 8,7 - - 13 7 - - N 1015,8 8 0 2,2
23.09.2018 07:00:00 9,0 8,6 - - 16 9 - - NNE 1014,8 5 0 1,4
23.09.2018 06:00:00 9,3 9,0 - - 16 9 - - NNE 1014,6 4,0 0 0,2
23.09.2018 05:00:00 9,4 9,1 - - 15 8 - - NNE 1014,5 4,2 0 0,2
23.09.2018 04:00:00 9,6 9,4 - - 15 8 - - NE 1014,2 3,6 0 0,0
23.09.2018 03:00:00 9,7 9,5 - - 16 9 - - NNE 1014,5 2,6 0 0,2
23.09.2018 02:00:00 9,9 9,6 - - 16 9 - - NNE 1014,4 4,2 0 0,0
23.09.2018 01:00:00 10,0 9,7 - - 13 7 - - NNE 1014,7 4,6 - 0,0
23.09.2018 00:00:00 10,2 9,7 - - 15 8 - - NNE 1014,5 13 0 0,0
22.09.2018 23:00:00 10,4 9,7 - - 13 7 - - NE 1013,8 16 0 0,0
22.09.2018 22:00:00 10,3 9,6 - - 15 8 - - NE 1013,7 30 0 0,0
22.09.2018 21:00:00 10,1 9,6 - - 18 10 - - NE 1013,5 30 0 0,2
22.09.2018 20:00:00 10,0 9,6 - - 16 9 - - NE 1013,7 15 0 0,0
22.09.2018 19:00:00 10,1 9,6 - - 18 10 - - ENE 1013,4 9 0 0,2
22.09.2018 18:00:00 10,2 9,8 - - 15 8 - - ENE 1013,5 9 0 1,4
22.09.2018 17:00:00 10,3 9,9 - - 16 9 - - E 1014,4 4,4 0 1,2
22.09.2018 16:00:00 10,0 9,2 - - 15 8 - - E 1015,5 4,0 0 1,2
22.09.2018 15:00:00 10,6 9,8 - - 13 7 - - ESE 1016,4 9 0 1,4
22.09.2018 14:00:00 10,5 9,3 - - 9 5 - - E 1017,0 10 0 1,2
22.09.2018 13:00:00 10,9 9,6 - - 9 5 - - SE 1018,2 17 0 1,2
22.09.2018 12:00:00 11,0 10,2 - - 8 4 - - SSE 1019,4 10 0 1,8
22.09.2018 11:00:00 10,7 9,8 - - 8 4 - - SW 1019,7 12 0 1,0
22.09.2018 10:00:00 10,8 9,6 14,7 15,7 15 8 - - SW 1019,6 13 0 0,2
22.09.2018 09:00:00 10,6 9,1 - - 16 9 - - SW 1019,0 35 0 0,8
22.09.2018 08:00:00 10,3 8,4 - - 9 5 - - SSW 1019,1 14 0 0,6
22.09.2018 07:00:00 10,8 9,4 - - 9 5 - - SSW 1019,1 40 0 0,0
22.09.2018 06:00:00 10,7 9,0 - - 9 5 - - WSW 1018,8 65 0 0,0
22.09.2018 05:00:00 10,9 9,1 - - 9 5 - - SW 1018,5 55 0 0,0
22.09.2018 04:00:00 10,9 9,1 - - 13 7 - - SSW 1018,8 70 0 0,0
22.09.2018 03:00:00 11,0 9,1 - - 13 7 - - SSW 1019,1 55 0 0,0
22.09.2018 02:00:00 11,6 9,1 - - 8 4 - - WSW 1018,7 50 0 0,0
22.09.2018 01:00:00 11,7 8,0 - - 15 8 - - WSW 1018,7 65 - 0,0
22.09.2018 00:00:00 13,0 8,9 - - 13 7 - - W 1018,6 50 0 0,0
21.09.2018 23:00:00 13,2 8,4 - - 15 8 - - W 1018,0 50 0 0,0
21.09.2018 22:00:00 13,0 8,7 - - 13 7 - - W 1017,5 50 0 0,0
21.09.2018 21:00:00 13,2 7,9 - - 24 13 - - W 1017,1 55 0 0,0
21.09.2018 20:00:00 13,3 7,6 - - 18 10 - - W 1016,7 55 0 0,0
21.09.2018 19:00:00 13,8 7,9 - - 21 11 46 25 W 1015,4 60 0 0,0
21.09.2018 18:00:00 14,1 7,5 - - 29 16 - - W 1014,2 65 18 0,0
21.09.2018 17:00:00 14,7 6,2 - - 35 19 55 30 W 1013,3 70 48 0,0
21.09.2018 16:00:00 15,8 7,3 - - 37 20 61 33 W 1012,5 70 60 0,0
21.09.2018 15:00:00 15,1 8,3 - - 39 21 70 38 W 1011,8 60 48 0,0
21.09.2018 14:00:00 14,4 9,1 - - 46 25 76 41 W 1010,7 45 54 0,0
21.09.2018 13:00:00 11,2 9,3 - - 48 26 80 43 W 1010,2 30 24 1,2
21.09.2018 12:00:00 15,1 7,1 - - 44 24 72 39 W 1008,9 50 54 0,0
21.09.2018 11:00:00 13,9 7,2 - - 37 20 55 30 W 1008,8 70 60 0,0
21.09.2018 10:00:00 12,9 6,1 15,4 15,7 35 19 52 28 W 1008,5 65 60 0,0
21.09.2018 09:00:00 11,7 6,2 - - 31 17 - - W 1007,8 60 60 0,0
21.09.2018 08:00:00 10,5 5,9 - - 21 11 - - W 1007,0 65 36 0,0
21.09.2018 07:00:00 9,4 5,7 - - 21 11 - - W 1006,0 70 0 0,0
21.09.2018 06:00:00 9,4 5,1 - - 16 9 - - W 1005,1 75 0 0,0
21.09.2018 05:00:00 10,5 6,4 - - 21 11 50 27 W 1003,6 75 0 0,0
21.09.2018 04:00:00 11,4 8,0 - - 28 15 54 29 W 1002,1 75 0 0,0
21.09.2018 03:00:00 11,7 9,0 - - 35 19 63 34 W 1000,1 55 0 0,0
21.09.2018 02:00:00 13,3 9,4 - - 39 21 85 46 W 998,8 60 0 0,0
21.09.2018 01:00:00 13,9 10,7 - - 54 29 81 44 WSW 997,1 45 - 0,0
21.09.2018 00:00:00 16,7 14,9 - - 46 25 65 35 WSW 996,3 65 0 6,4
20.09.2018 23:00:00 17,2 15,9 - - 37 20 67 36 SSW 995,5 3,4 0 1,0
20.09.2018 22:00:00 17,4 16,2 - - 39 21 67 36 S 997,1 15 0 2,6
20.09.2018 21:00:00 17,7 15,9 - - 37 20 57 31 SSW 999,4 10 0 0,4
20.09.2018 20:00:00 17,5 15,9 - - 35 19 57 31 S 1000,8 9 0 0,4
20.09.2018 19:00:00 18,3 15,4 - - 34 18 52 28 S 1001,8 30 0 0,0
20.09.2018 18:00:00 18,4 15,4 - - 29 16 48 26 SSW 1003,2 30 0 0,0
20.09.2018 17:00:00 18,1 15,9 - - 29 16 57 31 SSW 1004,5 35 0 0,0
20.09.2018 16:00:00 18,9 15,6 - - 35 19 59 32 SSW 1005,3 30 0 0,0
20.09.2018 15:00:00 18,9 15,6 - - 37 20 59 32 SSW 1005,9 30 0 0,0
20.09.2018 14:00:00 18,3 15,7 - - 35 19 59 32 SSW 1006,8 28 0 0,0
20.09.2018 13:00:00 17,6 16,1 - - 28 15 - - SSW 1007,6 30 0 0,0
20.09.2018 12:00:00 17,2 16,0 - - 26 14 - - SSW 1008,5 24 0 0,0
20.09.2018 11:00:00 15,3 15,3 - - 8 4 - - SSE 1009,2 26 0 0,4
20.09.2018 10:00:00 13,4 13,3 15,9 15,7 5 3 - - NE 1010,2 6 0 2,8
20.09.2018 09:00:00 13,1 13,0 - - 8 4 - - ESE 1010,4 9 0 0,0
20.09.2018 08:00:00 12,8 12,7 - - 5 3 - - SE 1010,6 21 0 1,0
20.09.2018 07:00:00 12,4 12,3 - - 5 3 - - NNW 1011,0 5 0 1,6
20.09.2018 06:00:00 12,1 12,0 - - 8 4 - - N 1010,3 6 0 1,6
20.09.2018 05:00:00 12,5 12,3 - - 5 3 - - E 1010,7 11 0 0,8
20.09.2018 04:00:00 12,2 12,1 - - 4 2 - - SE 1011,6 6 0 0,4

tt = temperature
td = dewpoint
tt -20cm = temperature -20cm
tt -100cm = temperature -100cm
ff = wind speed
fx = gusts
dd = wind direction
ppp = reduced air pressure
vv = visibility
sd = sunshine duration
rr = precipitation

Next stations